Location: Wayah Bald
(35.1806°N, 83.5603°W)
Time: 09:53:06
(UTC-04:00)

Meteor 1-27 Rocket - Visible Passes

Search period start: 23 June 2017 00:00
Search period end: 03 July 2017 00:00
Orbit: 831 x 909 km, 81.3° (Epoch: 22 June)

Date Brightness Start Highest point End Pass type
(mag) Time Alt. Az. Time Alt. Az. Time Alt. Az.
23 Jun 5.7 02:01:16 10° NNE 02:05:37 21° ENE 02:07:24 18° E visible
23 Jun 4.1 03:43:30 10° NNW 03:49:10 48° W 03:49:47 46° WSW visible
24 Jun 5.6 01:55:01 10° NNE 01:59:26 21° ENE 02:00:55 19° E visible
24 Jun 4.1 03:37:20 10° NNW 03:42:59 46° W 03:43:19 46° WSW visible
25 Jun 5.6 01:48:46 10° NNE 01:53:17 22° ENE 01:54:28 21° E visible
25 Jun 4.2 03:31:10 10° NNW 03:36:47 45° W 03:36:52 45° W visible
26 Jun 5.5 01:42:31 10° NNE 01:47:07 23° ENE 01:48:03 22° E visible
26 Jun 4.3 03:25:01 10° NNW 03:30:27 43° W 03:30:27 43° W visible
27 Jun 5.5 01:36:16 10° NNE 01:40:56 23° ENE 01:41:39 23° E visible
27 Jun 4.4 03:18:52 10° NNW 03:24:04 41° W 03:24:04 41° W visible
28 Jun 5.4 01:30:02 10° NNE 01:34:47 24° ENE 01:35:17 24° E visible
28 Jun 4.5 03:12:42 10° NNW 03:17:42 39° W 03:17:42 39° W visible
29 Jun 5.4 01:23:48 10° NNE 01:28:36 25° ENE 01:28:56 25° ENE visible
29 Jun 4.6 03:06:33 10° NNW 03:11:21 38° WNW 03:11:21 38° WNW visible
30 Jun 5.3 01:17:34 10° NNE 01:22:26 26° ENE 01:22:36 26° ENE visible
30 Jun 4.7 03:00:24 10° NNW 03:05:01 36° WNW 03:05:01 36° WNW visible
01 Jul 5.3 01:11:20 10° NNE 01:16:16 26° ENE 01:16:18 26° ENE visible
01 Jul 4.8 02:54:15 10° NNW 02:58:42 34° WNW 02:58:42 34° WNW visible
02 Jul 5.2 01:05:06 10° NNE 01:10:00 27° ENE 01:10:00 27° ENE visible
02 Jul 4.9 02:48:06 10° NNW 02:52:25 33° WNW 02:52:25 33° WNW visible
